H1 CPF 2 NER 2021 6 11 9 162 01 glonass133 H2 1403201 9133 40001 2021 6 11 0 0 0 2021 6 14 23 45 0 900 1 1 0 0 0 1 H9 10 0 59376 0.00000 0 -998720.073 19266736.961 -16708220.972 10 0 59376 900.00000 0 -1633690.858 21078967.497 -14297329.057 10 0 59376 1800.00000 0 -2022273.453 22639874.550 -11609192.784 10 0 59376 2700.00000 0 -2195177.242 23895495.166 -8695937.752 10 0 59376 3600.00000 0 -2192853.832 24801144.847 -5614050.800 10 0 59376 4500.00000 0 -2063545.977 25323245.125 -2423289.882 10 0 59376 5400.00000 0 -1861008.166 25440706.678 814469.803 10 0 59376 6300.00000 0 -1641995.158 25145809.935 4036431.479 10 0 59376 7200.00000 0 -1463624.597 24444546.062 7180091.181 10 0 59376 8100.00000 0 -1380725.290 23356403.669 10184447.506 10 0 59376 9000.00000 0 -1443283.373 21913609.644 12991183.344 10 0 59376 9900.00000 0 -1694094.588 20159855.306 15545796.605 10 0 59376 10800.00000 0 -2166722.386 18148560.541 17798658.068 10 0 59376 11700.00000 0 -2883848.805 15940747.816 19705975.887 10 0 59376 12600.00000 0 -3856088.660 13602614.315 21230647.970 10 0 59376 13500.00000 0 -5081318.306 11202902.923 22342985.784 10 0 59376 14400.00000 0 -6544548.703 8810181.181 23021295.488 10 0 59376 15300.00000 0 -8218349.748 6490141.223 23252304.979 10 0 59376 16200.00000 0 -10063809.806 4303032.792 23031428.366 10 0 59376 17100.00000 0 -12031991.916 2301335.922 22362862.354 10 0 59376 18000.00000 0 -14065827.158 527770.038 21259512.163 10 0 59376 18900.00000 0 -16102367.228 -986277.814 19742747.838 10 0 59376 19800.00000 0 -18075302.888 -2221840.374 17841994.960 10 0 59376 20700.00000 0 -19917643.369 -3172928.089 15594167.100 10 0 59376 21600.00000 0 -21564444.709 -3846534.770 13042950.473 10 0 59376 22500.00000 0 -22955472.507 -4262091.459 10237954.290 10 0 59376 23400.00000 0 -24037686.887 -4450392.273 7233743.247 10 0 59376 24300.00000 0 -24767444.721 -4452038.559 4088771.121 10 0 59376 25200.00000 0 -25112325.891 -4315468.214 864236.657 10 0 59376 26100.00000 0 -25052506.098 -4094654.745 -2377115.211 10 0 59376 27000.00000 0 -24581618.061 -3846574.811 -5572222.559 10 0 59376 27900.00000 0 -23707064.573 -3628552.870 -8658941.218 10 0 59376 28800.00000 0 -22449770.314 -3495596.646 -11577259.973 10 0 59376 29700.00000 0 -20843383.147 -3497837.385 -14270471.785 10 0 59376 30600.00000 0 -18932958.913 -3678184.184 -16686277.733 10 0 59376 31500.00000 0 -16773185.550 -4070292.193 -18777801.887 10 0 59376 32400.00000 0 -14426221.508 -4696930.968 -20504497.580 10 0 59376 33300.00000 0 -11959239.348 -5568822.001 -21832927.937 10 0 59376 34200.00000 0 -9441777.376 -6683994.431 -22737406.228 10 0 59376 35100.00000 0 -6943009.671 -8027686.061 -23200484.579 10 0 59376 36000.00000 0 -4529047.714 -9572793.887 -23213282.595 10 0 59376 36900.00000 0 -2260385.141 -11280855.369 -22775650.449 10 0 59376 37800.00000 0 -189590.695 -13103519.659 -21896164.128 10 0 59376 38700.00000 0 1640656.213 -14984447.741 -20591953.525 10 0 59376 39600.00000 0 3199107.146 -16861562.611 -18888367.006 10 0 59376 40500.00000 0 4467001.113 -18669556.266 -16818479.041 10 0 59376 41400.00000 0 5438593.559 -20342549.517 -14422450.168 10 0 59376 42300.00000 0 6121137.327 -21816794.252 -11746751.383 10 0 59376 43200.00000 0 6534317.857 -23033305.844 -8843267.399 10 0 59376 44100.00000 0 6709167.432 -23940316.172 -5768295.609 10 0 59376 45000.00000 0 6686504.935 -24495444.870 -2581459.638 10 0 59376 45900.00000 0 6514967.391 -24667498.005 655441.899 10 0 59376 46800.00000 0 6248716.610 -24437818.718 3879629.531 10 0 59376 47700.00000 0 5944917.905 -23801132.823 7028556.921 10 0 59376 48600.00000 0 5661097.456 -22765853.434 10041121.368 10 0 59376 49500.00000 0 5452490.074 -21353831.098 12858847.422 10 0 59376 50400.00000 0 5369489.578 -19599559.081 15427020.614 10 0 59376 51300.00000 0 5455309.771 -17548866.207 17695749.338 10 0 59376 52200.00000 0 5743955.253 -15257150.882 19620934.388 10 0 59376 53100.00000 0 6258588.349 -12787229.273 21165127.241 10 0 59376 54000.00000 0 7010361.931 -10206886.488 22298260.544 10 0 59376 54900.00000 0 7997768.430 -7586232.059 22998236.579 10 0 59376 55800.00000 0 9206533.763 -4994969.255 23251362.151 10 0 59376 56700.00000 0 10610062.091 -2499691.277 23052621.249 10 0 59376 57600.00000 0 12170414.279 -161316.382 22405779.834 10 0 59376 58500.00000 0 13839780.396 1967231.636 21323320.168 10 0 59376 59400.00000 0 15562385.789 3843001.374 19826205.409 10 0 59376 60300.00000 0 17276751.818 5434568.080 17943478.307 10 0 59376 61200.00000 0 18918217.027 6723099.658 15711701.180 10 0 59376 62100.00000 0 20421613.282 7702890.402 13174247.481 10 0 59376 63000.00000 0 21723984.424 8381340.712 10380458.301 10 0 59376 63900.00000 0 22767232.745 8778384.425 7384680.160 10 0 59376 64800.00000 0 23500581.365 8925388.862 4245202.893 10 0 59376 65700.00000 0 23882748.069 8863575.158 1023118.771 10 0 59376 66600.00000 0 23883738.255 8642026.811 -2218874.194 10 0 59376 67500.00000 0 23486180.736 8315372.106 -5417700.544 10 0 59376 68400.00000 0 22686149.595 7941239.846 -8511142.437 10 0 59376 69300.00000 0 21493437.152 7577597.465 -11439056.353 10 0 59376 70200.00000 0 19931266.505 7280085.380 -14144547.004 10 0 59376 71100.00000 0 18035455.853 7099461.384 -16575075.086 10 0 59376 72000.00000 0 15853070.018 7079263.820 -18683476.978 10 0 59376 72900.00000 0 13440616.023 7253792.668 -20428876.755 10 0 59376 73800.00000 0 10861858.502 7646493.903 -21777473.259 10 0 59376 74700.00000 0 8185346.403 8268815.088 -22703187.603 10 0 59376 75600.00000 0 5481753.995 9119580.191 -23188159.548 10 0 59376 76500.00000 0 2821146.455 10184909.680 -23223084.102 10 0 59376 77400.00000 0 270283.123 11438689.033 -22807382.779 10 0 59376 78300.00000 0 -2109930.630 12843566.019 -21949207.062 10 0 59376 79200.00000 0 -4266738.393 14352435.094 -20665274.581 10 0 59376 80100.00000 0 -6157480.713 15910347.071 -18980541.551 10 0 59376 81000.00000 0 -7751116.796 17456764.642 -16927717.877 10 0 59376 81900.00000 0 -9029258.330 18928069.956 -14546634.091 10 0 59376 82800.00000 0 -9986673.888 20260219.911 -11883472.047 10 0 59376 83700.00000 0 -10631244.408 21391438.555 -8989873.757 10 0 59376 84600.00000 0 -10983372.898 22264834.356 -5921945.014 10 0 59376 85500.00000 0 -11074874.134 22830832.858 -2739172.684 10 0 59377 0.00000 0 -10947391.785 23049322.917 496723.812 10 0 59377 900.00000 0 -10650410.156 22891425.925 3722985.311 10 0 59377 1800.00000 0 -10238944.439 22340814.525 6877026.065 10 0 59377 2700.00000 0 -9771007.479 21394522.901 9897645.189 10 0 59377 3600.00000 0 -9304959.586 20063215.900 12726212.060 10 0 59377 4500.00000 0 -8896853.696 18370903.277 15307802.967 10 0 59377 5400.00000 0 -8597887.933 16354110.544 17592266.987 10 0 59377 6300.00000 0 -8452073.342 14060539.690 19535200.462 10 0 59377 7200.00000 0 -8494215.563 11547274.645 21098811.140 10 0 59377 8100.00000 0 -8748296.088 8878605.168 22252655.267 10 0 59377 9000.00000 0 -9226322.063 6123558.772 22974233.311 10 0 59377 9900.00000 0 -9927693.993 3353242.591 23249432.626 10 0 59377 10800.00000 0 -10839119.083 638104.939 23072808.240 10 0 59377 11700.00000 0 -11935075.063 -1954770.199 22447695.966 10 0 59377 12600.00000 0 -13178806.215 -4364223.660 21386155.129 10 0 59377 13500.00000 0 -14523810.910 -6537330.460 19908741.407 10 0 59377 14400.00000 0 -15915759.110 -8431362.215 18044113.518 10 0 59377 15300.00000 0 -17294759.949 -10015321.048 15828480.753 10 0 59377 16200.00000 0 -18597884.392 -11270981.338 13304901.506 10 0 59377 17100.00000 0 -19761836.901 -12193396.257 10522446.026 10 0 59377 18000.00000 0 -20725663.255 -12790848.450 7535239.565 10 0 59377 18900.00000 0 -21433379.864 -13084247.838 4401404.683 10 0 59377 19800.00000 0 -21836412.901 -13106002.952 1181923.668 10 0 59377 20700.00000 0 -21895743.474 -12898414.591 -2060555.978 10 0 59377 21600.00000 0 -21583667.450 -12511661.034 -5262948.884 10 0 59377 22500.00000 0 -20885094.892 -12001461.387 -8362967.110 10 0 59377 23400.00000 0 -19798333.747 -11426517.254 -11300338.320 10 0 59377 24300.00000 0 -18335324.383 -10845842.263 -14017982.315 10 0 59377 25200.00000 0 -16521314.899 -10316093.400 -16463122.494 10 0 59377 26100.00000 0 -14393990.925 -9889017.731 -18588310.295 10 0 59377 27000.00000 0 -12002096.496 -9609122.776 -20352342.843 10 0 59377 27900.00000 0 -9403603.817 -9511668.927 -21721056.447 10 0 59377 28800.00000 0 -6663508.501 -9621068.329 -22667981.202 10 0 59377 29700.00000 0 -3851342.070 -9949757.221 -23174844.975 10 0 59377 30600.00000 0 -1038504.848 -10497588.660 -23231917.999 10 0 59377 31500.00000 0 1704470.387 -11251770.594 -22838192.353 10 0 59377 32400.00000 0 4310611.349 -12187351.475 -22001393.693 10 0 59377 33300.00000 0 6719045.180 -13268232.794 -20737825.635 10 0 59377 34200.00000 0 8877279.299 -14448666.024 -19072050.126 10 0 59377 35100.00000 0 10743130.997 -15675171.385 -17036410.094 10 0 59377 36000.00000 0 12286227.192 -16888798.341 -14670403.410 10 0 59377 36900.00000 0 13489013.398 -18027633.481 -12019919.946 10 0 59377 37800.00000 0 14347231.362 -19029451.072 -9136356.009 10 0 59377 38700.00000 0 14869846.758 -19834395.520 -6075622.701 10 0 59377 39600.00000 0 15078430.996 -20387583.372 -2897066.973 10 0 59377 40500.00000 0 15006024.009 -20641515.738 337674.213 10 0 59377 41400.00000 0 14695526.414 -20558199.634 3565864.779 10 0 59377 42300.00000 0 14197689.083 -20110888.734 6724882.566 10 0 59377 43200.00000 0 13568785.066 -19285369.772 9753431.159 10 0 59377 44100.00000 0 12868062.078 -18080739.664 12592727.113 10 0 59377 45000.00000 0 12155083.017 -16509639.655 15187639.491 10 0 59377 45900.00000 0 11487066.654 -14597935.391 17487759.694 10 0 59377 46800.00000 0 10916340.715 -12383854.890 19448380.878 10 0 59377 47700.00000 0 10488014.796 -9916619.055 21031367.917 10 0 59377 48600.00000 0 10237971.443 -7254620.471 22205901.107 10 0 59377 49500.00000 0 10191260.382 -4463225.004 22949079.174 10 0 59377 50400.00000 0 10360964.054 -1612286.644 23246369.707 10 0 59377 51300.00000 0 10747582.904 1226522.120 23091898.121 10 0 59377 52200.00000 0 11338967.110 3982454.247 22488569.139 10 0 59377 53100.00000 0 12110798.521 6588392.903 21448017.943 10 0 59377 54000.00000 0 13027603.428 8983405.075 19990391.327 10 0 59377 54900.00000 0 14044254.338 11115038.110 18143962.417 10 0 59377 55800.00000 0 15107898.175 12941263.693 15944585.787 10 0 59377 56700.00000 0 16160230.037 14431988.443 13435002.980 10 0 59377 57600.00000 0 17140016.762 15570068.306 10664011.504 10 0 59377 58500.00000 0 17985763.594 16351784.685 7685513.370 10 0 59377 59400.00000 0 18638410.867 16786762.983 4557461.783 10 0 59377 60300.00000 0 19043946.051 16897337.878 1340726.909 10 0 59377 61200.00000 0 19155819.841 16717393.072 -1902096.456 10 0 59377 62100.00000 0 18937063.289 16290725.753 -5107915.215 10 0 59377 63000.00000 0 18362015.529 15669006.162 -8214373.481 10 0 59377 63900.00000 0 17417588.403 14909419.859 -11161072.144 10 0 59377 64800.00000 0 16104013.988 14072093.630 -13890747.999 10 0 59377 65700.00000 0 14435043.076 13217414.928 -16350388.897 10 0 59377 66600.00000 0 12437586.046 12403358.881 -18492262.924 10 0 59377 67500.00000 0 10150811.050 11682936.206 -20274841.697 10 0 59377 68400.00000 0 7624737.214 11101869.730 -21663600.314 10 0 59377 69300.00000 0 4918381.611 10696597.196 -22631679.057 10 0 59377 70200.00000 0 2097537.141 10492683.840 -23160394.982 10 0 59377 71100.00000 0 -767726.595 10503710.754 -23239594.461 10 0 59377 72000.00000 0 -3605735.961 10730684.893 -22867840.821 10 0 59377 72900.00000 0 -6345949.362 11161994.672 -22052434.294 10 0 59377 73800.00000 0 -8921644.246 11773912.339 -20809264.517 10 0 59377 74700.00000 0 -11272444.671 12531621.552 -19162498.814 10 0 59377 75600.00000 0 -13346585.939 13390726.788 -17144112.394 10 0 59377 76500.00000 0 -15102823.692 14299181.211 -14793269.350 10 0 59377 77400.00000 0 -16511909.439 15199552.253 -12155566.137 10 0 59377 78300.00000 0 -17557572.461 16031530.001 -9282151.655 10 0 59377 79200.00000 0 -18236968.378 16734573.337 -6228740.388 10 0 59377 80100.00000 0 -18560576.658 17250582.816 -3054537.277 10 0 59377 81000.00000 0 -18551552.234 17526487.990 178905.361 10 0 59377 81900.00000 0 -18244559.108 17516640.263 3408877.062 10 0 59377 82800.00000 0 -17684135.322 17184910.259 6572721.734 10 0 59377 83700.00000 0 -16922658.380 16506400.915 9609050.093 10 0 59377 84600.00000 0 -16017996.809 15468703.371 12458928.643 10 0 59377 85500.00000 0 -15030946.789 14072641.831 15067022.057 10 0 59378 0.00000 0 -14022561.699 12332474.830 17382666.858 10 0 59378 900.00000 0 -13051487.162 10275542.526 19360855.861 10 0 59378 1800.00000 0 -12171413.026 7941374.399 20963113.648 10 0 59378 2700.00000 0 -11428750.874 5380291.150 22158246.944 10 0 59378 3600.00000 0 -10860633.269 2651559.205 22922954.792 10 0 59378 4500.00000 0 -10493320.273 -178827.708 23242286.709 10 0 59378 5400.00000 0 -10341080.033 -3040648.502 23109939.735 10 0 59378 6300.00000 0 -10405591.084 -5862133.467 22528388.258 10 0 59378 7200.00000 0 -10675892.026 -8572711.123 21508843.543 10 0 59378 8100.00000 0 -11128881.227 -11105709.601 20071043.195 10 0 59378 9000.00000 0 -11730346.062 -13400900.574 18242873.896 10 0 59378 9900.00000 0 -12436478.724 -15406779.902 16059834.142 10 0 59378 10800.00000 0 -13195815.001 -17082490.070 13564346.786 10 0 59378 11700.00000 0 -13951514.166 -18399304.255 10804934.353 10 0 59378 12600.00000 0 -14643883.511 -19341610.072 7835273.022 10 0 59378 13500.00000 0 -15213040.266 -19907352.162 4713143.790 10 0 59378 14400.00000 0 -15601597.594 -20107915.620 1499301.638 10 0 59378 15300.00000 0 -15757260.090 -19967455.946 -1743714.558 10 0 59378 16200.00000 0 -15635217.941 -19521704.826 -4952807.302 10 0 59378 17100.00000 0 -15200237.430 -18816303.295 -8065556.149 10 0 59378 18000.00000 0 -14428358.450 -17904733.930 -11021438.640 10 0 59378 18900.00000 0 -13308126.539 -16845940.669 -13763011.936 10 0 59378 19800.00000 0 -11841306.797 -15701737.861 -16237031.599 10 0 59378 20700.00000 0 -10043049.204 -14534118.800 -18395485.383 10 0 59378 21600.00000 0 -7941498.056 -13402577.796 -20196522.080 10 0 59378 22500.00000 0 -5576861.632 -12361558.795 -21605257.803 10 0 59378 23400.00000 0 -2999980.883 -11458137.705 -22594444.695 10 0 59378 24300.00000 0 -270456.603 -10730035.310 -23144990.073 10 0 59378 25200.00000 0 2545587.283 -10204043.348 -23246316.904 10 0 59378 26100.00000 0 5378011.725 -9894928.767 -22896559.622 10 0 59378 27000.00000 0 8155338.419 -9804860.982 -22102592.342 10 0 59378 27900.00000 0 10807483.404 -9923385.067 -20879889.553 10 0 59378 28800.00000 0 13268435.935 -10227941.062 -19252222.358 10 0 59378 29700.00000 0 15478772.690 -10684906.896 -17251196.253 10 0 59378 30600.00000 0 17387904.186 -11251120.670 -14915639.201 10 0 59378 31500.00000 0 18955961.202 -11875818.155 -12290851.537 10 0 59378 32400.00000 0 20155243.949 -12502904.056 -9427731.738 10 0 59378 33300.00000 0 20971174.684 -13073461.620 -6381794.380 10 0 59378 34200.00000 0 21402714.889 -13528395.123 -3212098.894 10 0 59378 35100.00000 0 21462230.395 -13811094.083 19890.654 10 0 59378 36000.00000 0 21174810.664 -13870006.925 3251493.021 10 0 59378 36900.00000 0 20577071.192 -13661015.464 6420021.654 10 0 59378 37800.00000 0 19715489.542 -13149509.709 9463997.626 10 0 59378 38700.00000 0 18644345.019 -12312074.878 12324340.275 10 0 59378 39600.00000 0 17423348.548 -11137718.624 14945512.354 10 0 59378 40500.00000 0 16115062.302 -9628585.627 17276597.609 10 0 59378 41400.00000 0 14782217.369 -7800127.988 19272289.895 10 0 59378 42300.00000 0 13485042.033 -5680722.668 20893774.637 10 0 59378 43200.00000 0 12278712.769 -3310750.156 22109485.615 10 0 59378 44100.00000 0 11211034.857 -741171.058 22895722.348 10 0 59378 45000.00000 0 10320450.018 1968341.687 23237116.007 10 0 59378 45900.00000 0 9634454.721 4751638.716 23126934.580 10 0 59378 46800.00000 0 9168495.691 7538606.571 22567221.053 10 0 59378 47700.00000 0 8925389.222 10257852.896 21568761.378 10 0 59378 48600.00000 0 8895288.886 12839453.557 20150882.267 10 0 59378 49500.00000 0 9056203.237 15217647.896 18341082.021 10 0 59378 50400.00000 0 9375041.838 17333369.955 16174500.925 10 0 59378 51300.00000 0 9809145.573 19136510.222 13693240.866 10 0 59378 52200.00000 0 10308236.519 20587813.419 10945546.991 10 0 59378 53100.00000 0 10816704.652 21660332.852 7984867.172 10 0 59378 54000.00000 0 11276134.136 22340380.484 4868807.677 10 0 59378 54900.00000 0 11627961.450 22627933.128 1658005.756 10 0 59378 55800.00000 0 11816151.890 22536478.140 -1585058.143 10 0 59378 56700.00000 0 11789779.985 22092305.886 -4797284.548 10 0 59378 57600.00000 0 11505403.479 21333279.749 -7916190.740 10 0 59378 58500.00000 0 10929129.345 20307136.678 -10881132.990 10 0 59378 59400.00000 0 10038283.552 19069391.116 -13634490.685 10 0 59378 60300.00000 0 8822613.266 17680931.833 -16122788.705 10 0 59378 61200.00000 0 7284970.201 16205413.896 -18297735.860 10 0 59378 62100.00000 0 5441445.930 14706556.276 -20117159.292 10 0 59378 63000.00000 0 3320953.037 13245459.086 -21545817.128 10 0 59378 63900.00000 0 964269.472 11878053.108 -22556074.212 10 0 59378 64800.00000 0 -1577414.335 10652788.171 -23128428.787 10 0 59378 65700.00000 0 -4244385.385 9608656.430 -23251880.885 10 0 59378 66600.00000 0 -6970656.768 8773632.262 -22924136.272 10 0 59378 67500.00000 0 -9686482.289 8163592.789 -22151642.868 10 0 59378 68400.00000 0 -12321033.394 7781762.829 -20949459.582 10 0 59378 69300.00000 0 -14805128.145 7618706.210 -19340960.487 10 0 59378 70200.00000 0 -17073900.011 7652862.671 -17357380.207 10 0 59378 71100.00000 0 -19069296.755 7851606.859 -15037209.096 10 0 59378 72000.00000 0 -20742306.547 8172784.370 -12425449.653 10 0 59378 72900.00000 0 -22054819.750 8566659.834 -9572748.026 10 0 59378 73800.00000 0 -22981049.723 8978194.960 -6534416.870 10 0 59378 74700.00000 0 -23508454.081 9349560.565 -3369368.014 10 0 59378 75600.00000 0 -23638118.577 9622776.756 -138975.121 10 0 59378 76500.00000 0 -23384587.978 9742369.919 3094112.008 10 0 59378 77400.00000 0 -22775151.287 9657934.335 6267178.652 10 0 59378 78300.00000 0 -21848611.439 9326490.021 9318658.637 10 0 59378 79200.00000 0 -20653591.059 8714536.831 12189326.595 10 0 59378 80100.00000 0 -19246445.308 7799717.408 14823445.877 10 0 59378 81000.00000 0 -17688869.218 6572017.875 17169849.904 10 0 59378 81900.00000 0 -16045299.659 5034454.347 19182936.070 10 0 59378 82800.00000 0 -14380220.681 3203214.872 20823552.863 10 0 59378 83700.00000 0 -12755484.939 1107249.041 22059763.097 10 0 59378 84600.00000 0 -11227763.198 -1212679.467 22867468.454 10 0 59378 85500.00000 0 -9846228.609 -3705439.620 23230883.055 10 0 59379 0.00000 0 -8650572.563 -6311420.429 23142846.749 10 0 59379 900.00000 0 -7669435.389 -8964782.142 22604971.561 10 0 59379 1800.00000 0 -6919316.827 -11595978.179 21627618.176 10 0 59379 2700.00000 0 -6404013.441 -14134444.265 20229701.995 10 0 59379 3600.00000 0 -6114604.766 -16511343.236 18438332.103 10 0 59379 4500.00000 0 -6029989.988 -18662251.185 16288289.319 10 0 59379 5400.00000 0 -6117951.739 -20529673.108 13821352.944 10 0 59379 6300.00000 0 -6336702.002 -22065282.782 11085488.799 10 0 59379 7200.00000 0 -6636844.323 -23231792.853 8133914.222 10 0 59379 8100.00000 0 -6963668.679 -24004376.643 5024058.308 10 0 59379 9000.00000 0 -7259681.007 -24371581.918 1816437.962 10 0 59379 9900.00000 0 -7467259.255 -24335698.329 -1426527.549 10 0 59379 10800.00000 0 -7531322.239 -23912563.484 -4641739.647 10 0 59379 11700.00000 0 -7401897.099 -23130816.450 -7766656.305 10 0 59379 12600.00000 0 -7036475.445 -22030631.000 -10740515.569 10 0 59379 13500.00000 0 -6402057.468 -20661983.003 -13505522.125 10 0 59379 14400.00000 0 -5476796.719 -19082525.944 -16007973.217 10 0 59379 15300.00000 0 -4251175.434 -17355164.994 -18199301.617 10 0 59379 16200.00000 0 -2728660.380 -15545432.374 -20037015.494 10 0 59379 17100.00000 0 -925811.175 -13718774.681 -21485517.318 10 0 59379 18000.00000 0 1128163.734 -11937866.073 -22516786.526 10 0 59379 18900.00000 0 3392385.186 -10260059.528 -23110913.684 10 0 59379 19800.00000 0 5815775.066 -8735082.064 -23256476.754 10 0 59379 20700.00000 0 8338960.716 -7403069.247 -22950753.169 10 0 59379 21600.00000 0 10896533.336 -6293019.735 -22199764.490 10 0 59379 22500.00000 0 13419567.181 -5421732.913 -21018153.410 10 0 59379 23400.00000 0 15838295.578 -4793272.477 -19428895.905 10 0 59379 24300.00000 0 18084833.549 -4398976.902 -17462854.225 10 0 59379 25200.00000 0 20095834.786 -4218015.031 -15158179.197 10 0 59379 26100.00000 0 21814973.384 -4218462.433 -12559573.126 10 0 59379 27000.00000 0 23195147.891 -4358852.528 -9717427.077 10 0 59379 27900.00000 0 24200316.610 -4590136.746 -6686848.645 10 0 59379 28800.00000 0 24806888.135 -4857970.906 -3526598.614 10 0 59379 29700.00000 0 25004609.504 -5105231.305 -297956.596 10 0 59379 30600.00000 0 24796915.119 -5274654.323 2936462.775 10 0 59379 31500.00000 0 24200721.905 -5311488.033 6113920.280 10 0 59379 32400.00000 0 23245679.294 -5166043.687 9172765.966 10 0 59379 33300.00000 0 21972905.277 -4796038.973 12053632.939 10 0 59379 34200.00000 0 20433261.282 -4168633.590 14700587.939 10 0 59379 35100.00000 0 18685237.818 -3262070.404 17062216.441 10 0 59379 36000.00000 0 16792539.119 -2066851.927 19092621.294 10 0 59379 36900.00000 0 14821467.523 -586401.178 20752315.510 10 0 59379 37800.00000 0 12838216.707 1162822.432 22008991.961 10 0 59379 38700.00000 0 10906186.560 3151758.967 22838155.048 10 0 59379 39600.00000 0 9083431.718 5339719.109 23223601.966 10 0 59379 40500.00000 0 7420350.077 7675851.904 23157744.058 10 0 59379 41400.00000 0 5957707.659 10101049.532 22641761.651 10 0 59379 42300.00000 0 4725082.263 12550211.033 21685588.895 10 0 59379 43200.00000 0 3739790.789 14954771.777 20307728.261 10 0 59379 44100.00000 0 3006344.926 17245393.971 18534897.610 10 0 59379 45000.00000 0 2516457.808 19354706.297 16401515.999 10 0 59379 45900.00000 0 2249600.936 21219978.397 13949037.596 10 0 59379 46800.00000 0 2174087.421 22785618.203 11225146.170 10 0 59379 47700.00000 0 2248635.226 24005387.151 8282825.694 10 0 59379 48600.00000 0 2424343.556 24844240.045 5179325.172 10 0 59379 49500.00000 0 2646997.807 25279711.957 1975038.247 10 0 59379 50400.00000 0 2859604.387 25302793.626 -1267679.876 10 0 59379 51300.00000 0 3005046.795 24918258.595 -4485734.280 10 0 59379 52200.00000 0 3028749.125 24144428.569 -7616526.223 10 0 59379 53100.00000 0 2881232.982 23012387.425 -10599177.881 10 0 59379 54000.00000 0 2520458.383 21564677.707 -13375721.308 10 0 59379 54900.00000 0 1913848.706 19853535.329 -15892227.876 10 0 59379 55800.00000 0 1039913.368 17938737.556 -18099855.797 10 0 59379 56700.00000 0 -110600.769 15885155.440 -19955795.464 10 0 59379 57600.00000 0 -1534078.162 13760113.814 -21424094.633 10 0 59379 58500.00000 0 -3213950.334 11630669.723 -22476348.050 10 0 59379 59400.00000 0 -5121162.381 9560922.861 -23092239.080 10 0 59379 60300.00000 0 -7215171.069 7609469.808 -23259923.838 10 0 59379 61200.00000 0 -9445433.101 5827107.375 -22976251.352 10 0 59379 62100.00000 0 -11753321.994 4254879.521 -22246816.412 10 0 59379 63000.00000 0 -14074394.343 2922547.725 -21085844.708 10 0 59379 63900.00000 0 -16340911.752 1847547.008 -19515912.951 10 0 59379 64800.00000 0 -18484514.349 1034469.451 -17567509.483 10 0 59379 65700.00000 0 -20438935.442 475095.189 -15278443.762 10 0 59379 66600.00000 0 -22142645.067 148968.219 -12693115.833 10 0 59379 67500.00000 0 -23541313.057 24491.702 -9861659.446 10 0 59379 68400.00000 0 -24589989.542 60495.905 -6838974.822 10 0 59379 69300.00000 0 -25254912.282 208212.243 -3683669.343 10 0 59379 70200.00000 0 -25514865.624 413569.918 -456926.196 10 0 59379 71100.00000 0 -25362034.352 619718.061 2778677.531 10 0 59379 72000.00000 0 -24802316.594 769666.852 5960380.530 10 0 59379 72900.00000 0 -23855082.497 808935.893 9026451.488 10 0 59379 73800.00000 0 -22552388.389 688097.757 11917384.417 10 0 59379 74700.00000 0 -20937678.926 365108.934 14577051.839 10 0 59379 75600.00000 0 -19064031.030 -192670.849 16953793.578 10 0 59379 76500.00000 0 -16992012.560 -1006856.955 19001420.075 10 0 59379 77400.00000 0 -14787244.691 -2086885.243 20680110.761 10 0 59379 78300.00000 0 -12517769.351 -3429374.527 21957190.144 10 0 59379 79200.00000 0 -10251331.068 -5018034.516 22807766.563 10 0 59379 80100.00000 0 -8052686.270 -6824124.811 23215221.111 10 0 59379 81000.00000 0 -5981051.870 -8807447.562 23171537.049 10 0 59379 81900.00000 0 -4087799.148 -10917834.038 22677463.006 10 0 59379 82800.00000 0 -2414488.957 -13097064.470 21742506.250 10 0 59379 83700.00000 0 -991329.932 -15281142.307 20384755.595 10 0 59379 84600.00000 0 163876.170 -17402828.807 18630536.611 10 0 59379 85500.00000 0 1046258.157 -19394332.587 16513905.201 99